Wind_Speed
4 5 3 1 1 2 4 6 8 8 8 8 8 8 8 10 12 15 17 18 19 20 21 21 22 23 23 23 24 25 25 27
5 4 3 1 2 3 5 7 8 6 6 6 6 8 9 11 14 17 19 20 22 22 23 23 25 25 26 27 28 29 29 30
7 6 5 4 2 3 4 5 5 5 6 6 8 11 13 15 17 19 21 22 23 24 25 26 27 29 30 31 33 36 36 36
9 8 7 6 5 5 6 6 5 6 8 10 12 14 16 18 21 22 23 25 26 28 29 29 30 31 33 37 40 40 38 37
11 10 9 8 8 8 9 7 7 9 10 12 14 16 19 21 23 24 26 28 30 31 32 33 34 36 40 41 38 34 32 31
11 10 10 9 10 11 11 10 10 11 13 14 16 18 20 21 23 25 27 29 31 33 34 36 40 42 38 34 34 34 34 34
12 11 10 10 12 12 12 12 12 13 14 16 18 20 22 23 25 26 28 30 32 34 37 41 38 35 36 36 36 37 37 37
13 11 10 11 12 13 13 13 13 14 15 18 20 22 24 26 27 30 32 34 35 38 37 36 37 37 38 39 39 39 39 37
13 10 10 12 14 14 13 13 14 16 17 19 21 23 26 27 30 33 35 37 37 35 35 37 38 39 39 40 40 39 37 31
12 11 10 12 14 13 13 14 16 18 20 22 23 25 27 29 32 35 37 36 36 38 39 40 40 40 41 41 41 40 34 26
11 11 11 13 13 14 15 16 18 21 23 24 25 26 28 29 34 35 36 36 37 38 39 41 42 41 41 41 40 37 27 21
13 13 13 14 15 17 18 19 21 22 24 25 25 27 27 31 36 35 35 36 37 37 37 38 38 39 39 40 38 32 26 22
14 15 16 17 17 18 19 20 22 23 25 24 26 29 28 34 35 35 36 37 38 37 37 37 37 38 38 38 35 32 27 29
15 16 17 18 19 20 21 22 22 23 24 27 27 26 33 35 34 34 36 37 36 36 36 36 36 35 35 31 28 26 29 34
16 16 18 20 21 21 21 22 22 24 27 26 25 31 35 32 33 34 35 33 33 34 34 35 35 34 31 30 32 33 36 40
16 15 17 18 20 20 21 22 24 23 24 27 32 34 31 31 32 31 30 31 33 35 35 35 34 34 35 36 39 43 46 49
18 18 17 17 18 20 23 23 22 23 27 33 29 27 29 30 28 27 29 31 33 34 34 35 36 38 40 43 45 48 50 53
14 15 15 15 18 22 23 23 24 23 30 27 28 27 28 26 25 26 28 30 31 33 35 37 38 40 42 44 47 49 52 55
16 16 17 18 20 24 25 25 23 25 29 27 27 27 24 24 25 25 27 30 32 34 36 37 39 42 46 49 52 55 58 62
21 22 22 21 21 23 25 27 24 29 27 27 26 24 23 23 24 26 29 31 33 34 37 40 44 47 51 54 57 60 64 67
Wind_Direction
169 172 179 219 335 355 358 344 339 350 359 0 359 352 347 338 334 334 334 332 333 333 330 327 324 321 318 316 314 311 309 306
219 220 209 252 310 337 335 329 337 342 353 349 334 333 329 331 330 329 330 330 329 326 323 322 321 318 316 314 313 309 306 303
222 237 252 253 244 269 292 314 318 318 319 316 318 325 328 331 330 329 329 326 324 323 322 321 319 316 314 314 313 310 305 301
234 241 247 252 247 263 277 284 290 301 307 312 323 325 329 331 332 329 326 323 321 320 319 317 314 312 312 311 309 303 300 298
231 233 248 262 274 279 288 294 310 314 314 318 323 324 325 327 328 326 323 320 317 316 315 313 311 310 308 307 306 305 304 301
241 237 251 265 276 285 302 312 317 319 324 327 325 325 326 324 320 318 317 316 316 315 314 313 311 310 311 312 310 309 308 306
243 251 258 273 282 291 299 307 316 321 320 319 320 322 320 318 317 315 315 315 315 315 315 313 315 316 315 313 311 309 306 303
247 253 274 279 286 292 297 307 314 314 314 315 319 318 316 316 316 317 318 318 318 318 318 317 317 316 315 315 314 312 310 308
249 261 278 286 287 290 298 303 304 309 311 312 312 314 316 316 319 320 322 321 322 320 317 316 317 317 316 314 312 311 312 312
259 267 280 285 287 293 297 299 303 304 305 308 311 312 315 319 322 322 321 323 324 321 321 319 318 318 317 315 314 313 314 310
264 271 278 285 288 293 295 297 298 300 304 305 307 312 316 321 323 322 322 324 322 322 320 319 320 319 316 316 315 312 310 304
264 274 278 284 288 292 293 295 296 299 302 305 309 312 316 322 324 323 323 320 320 319 318 317 316 315 314 315 313 310 309 298
265 273 278 283 286 288 290 291 295 300 301 304 311 315 317 323 323 322 319 320 320 321 321 318 317 318 316 315 314 310 307 302
262 271 277 282 283 285 287 291 296 298 301 308 313 314 320 321 319 319 320 319 321 321 321 322 320 319 318 314 308 299 299 301
263 267 272 276 280 284 288 292 294 300 306 310 311 316 317 317 319 319 319 323 322 323 326 327 327 326 321 314 306 302 298 299
269 268 269 274 280 285 286 289 300 307 309 312 312 313 314 317 316 318 322 323 327 331 330 329 329 327 323 317 312 308 304 300
267 271 271 275 278 282 286 294 303 308 314 315 314 315 315 313 317 321 324 327 329 330 330 329 327 321 316 313 311 309 308 306
267 274 282 282 281 283 288 298 300 308 317 314 313 312 312 315 317 321 323 327 328 328 327 325 320 317 316 314 312 311 311 311
280 286 291 292 285 284 288 293 301 310 312 309 311 311 312 314 317 319 324 326 329 327 322 318 320 320 319 318 318 318 316 316
285 292 295 292 290 288 293 300 300 309 306 308 312 310 314 316 319 322 325 325 326 322 322 324 325 324 323 321 320 319 319 318
Height
5872 5871 5871 5871 5871 5871 5871 5870 5869 5867 5866 5865 5864 5863 5862 5861 5860 5858 5856 5854 5853 5851 5849 5846 5844 5842 5840 5838 5836 5834 5832 5829
5873 5872 5870 5870 5871 5870 5870 5869 5868 5866 5866 5864 5863 5861 5860 5859 5858 5857 5855 5853 5851 5849 5847 5844 5842 5839 5836 5834 5831 5829 5827 5824
5871 5871 5870 5869 5868 5868 5867 5866 5866 5865 5864 5863 5862 5860 5859 5858 5857 5856 5854 5852 5849 5847 5844 5841 5838 5835 5832 5829 5826 5823 5819 5817
5868 5869 5869 5868 5867 5865 5864 5863 5863 5862 5862 5861 5861 5859 5857 5856 5854 5853 5851 5849 5846 5844 5841 5837 5834 5830 5827 5824 5820 5815 5812 5808
5866 5866 5867 5866 5866 5864 5863 5862 5861 5861 5861 5860 5859 5857 5856 5854 5852 5850 5847 5845 5842 5839 5835 5832 5828 5824 5820 5816 5812 5809 5805 5801
5864 5864 5864 5864 5864 5863 5862 5861 5860 5860 5859 5858 5856 5854 5853 5851 5849 5846 5843 5840 5837 5833 5829 5824 5820 5816 5812 5808 5804 5801 5797 5794
5861 5861 5862 5862 5862 5861 5860 5859 5858 5857 5855 5854 5853 5851 5849 5846 5844 5842 5839 5836 5832 5828 5823 5817 5813 5809 5805 5801 5797 5794 5790 5786
5858 5859 5859 5859 5859 5859 5858 5856 5855 5854 5852 5851 5849 5847 5844 5842 5839 5836 5833 5830 5826 5821 5815 5810 5806 5802 5798 5794 5789 5785 5781 5777
5856 5856 5856 5856 5855 5855 5855 5854 5852 5851 5849 5847 5845 5843 5840 5837 5834 5830 5826 5822 5818 5814 5810 5805 5800 5796 5791 5786 5781 5777 5773 5769
5854 5854 5853 5853 5852 5851 5851 5850 5848 5847 5845 5843 5841 5838 5835 5832 5829 5825 5821 5816 5811 5805 5801 5797 5793 5788 5783 5778 5773 5769 5766 5762
5850 5851 5851 5850 5849 5848 5847 5846 5845 5843 5841 5839 5837 5834 5831 5828 5824 5819 5815 5810 5805 5800 5796 5790 5785 5780 5775 5770 5766 5762 5759 5756
5847 5847 5847 5846 5845 5844 5843 5841 5840 5838 5837 5834 5832 5829 5826 5822 5818 5814 5809 5805 5800 5796 5792 5787 5781 5775 5769 5764 5760 5756 5753 5750
5844 5844 5843 5843 5841 5840 5838 5837 5835 5834 5832 5829 5827 5824 5820 5816 5812 5808 5803 5799 5795 5790 5785 5779 5774 5769 5763 5758 5754 5751 5748 5745
5840 5840 5839 5838 5837 5835 5833 5832 5831 5829 5826 5824 5822 5819 5815 5811 5807 5802 5798 5793 5788 5783 5779 5774 5769 5764 5759 5755 5752 5748 5744 5740
5836 5836 5836 5834 5832 5830 5829 5828 5826 5824 5822 5819 5816 5813 5809 5805 5801 5796 5791 5787 5782 5777 5773 5768 5762 5758 5753 5748 5745 5742 5738 5733
5831 5831 5831 5829 5827 5825 5823 5822 5821 5819 5817 5814 5810 5807 5803 5799 5795 5790 5786 5780 5775 5771 5767 5762 5757 5752 5747 5743 5738 5733 5728 5723
5826 5826 5827 5825 5823 5820 5818 5816 5815 5813 5811 5808 5803 5800 5797 5793 5788 5784 5779 5774 5770 5766 5760 5755 5750 5745 5740 5735 5730 5723 5717 5709
5821 5822 5822 5821 5818 5815 5813 5811 5809 5807 5805 5802 5798 5794 5791 5787 5783 5778 5774 5770 5765 5760 5755 5749 5744 5739 5733 5726 5720 5712 5705 5697
5817 5818 5818 5816 5814 5810 5808 5806 5804 5802 5800 5796 5793 5789 5785 5781 5777 5774 5769 5764 5759 5753 5749 5743 5737 5730 5723 5715 5707 5699 5690 5681
5812 5811 5811 5810 5808 5805 5802 5799 5798 5797 5794 5791 5787 5783 5779 5776 5773 5768 5763 5758 5753 5748 5742 5735 5727 5720 5712 5703 5694 5685 5675 5665